Flag for Canada Weather past 2 weeks in Sanikiluaq, Nunavut Territory, Canada

Now
72 °F

Sunny.


Feels Like: 76 °F
Forecast: 53 / 62 °F
Wind: 10 mph from Southeast

Location: Kuujjuarapik

Current Time: Aug 21, 2014 at 10:18:36 AM

Latest Report: Aug 21, 2014 at 9:00 AM


Visibility: 9 mi

Pressure: 30.15 "Hg

Humidity: 57%

Dew point: 55 °F

Location of SanikiluaqLocation

Historic Weather in Sanikiluaq — Graph

°F

Sanikiluaq temperature yesterday

Maximum temperature yesterday: 79 °F (at 12:00 PM)
Minimum temperature yesterday: 55 °F (at 6:00 AM)
Average temperature yesterday: 68 °F

Past Weeks' High & Low Weather Summary

 TemperatureHumidityPressure
High79 °F (Aug 10, 6:00 PM)100% (Aug 6, 9:00 AM)30.15 "Hg (Aug 6, 9:00 AM)
Low39 °F (Aug 18, 12:00 AM)36% (Aug 8, 5:00 PM)29.68 "Hg (Aug 16, 4:00 AM)
Average56 °F81%29.95 "Hg
* Reported Aug 6 9:00 AM — Aug 21 9:00 AM, Sanikiluaq, Weather by CustomWeather, © 2014

Note: Actual official high and low records may vary slightly from our data, if they occured in-between our weather recording intervals... More about our weather records

Advertising

Sanikiluaq weather history for previous 24 hours

 ConditionsComfort  
Time TempWeatherWind HumidityBarometerVisibility
9:00 AM
Aug 21
72 °FSunny.10 mph57%30.15 "Hg9 mi
8:00 AM66 °FSunny.9 mph64%30.15 "Hg9 mi
7:00 AM64 °FSunny.13 mph68%30.15 "Hg9 mi
6:00 AM63 °FClear.12 mph68%30.14 "Hg9 mi
5:00 AM64 °FClear.13 mph64%30.13 "Hg9 mi
4:00 AM64 °FClear.8 mph64%30.13 "Hg9 mi
3:00 AM64 °FClear.9 mph64%30.12 "Hg9 mi
2:00 AM64 °FClear.6 mph64%30.12 "Hg9 mi
1:00 AM66 °FClear.7 mph60%30.12 "Hg9 mi
12:00 AM66 °FClear.9 mph60%30.11 "Hg9 mi
11:00 PM
Aug 20
68 °FClear.5 mph56%30.11 "Hg9 mi
10:00 PM61 °FClear.No wind83%30.10 "Hg9 mi
9:00 PM66 °FSunny.No wind68%30.10 "Hg9 mi
8:00 PM73 °FSunny.5 mph50%30.09 "Hg9 mi
7:00 PM75 °FSunny.12 mph44%30.09 "Hg9 mi
6:00 PM77 °FSunny.12 mph42%30.08 "Hg9 mi
5:00 PM77 °FSunny.13 mph42%30.09 "Hg9 mi
4:00 PM77 °FPassing clouds.14 mph42%30.09 "Hg9 mi
3:00 PM77 °FPartly sunny.12 mph44%30.08 "Hg9 mi
2:00 PM77 °FScattered clouds.7 mph44%30.08 "Hg9 mi
1:00 PM79 °FPartly sunny.3 mph39%30.08 "Hg9 mi
12:00 PM79 °FScattered clouds.8 mph39%30.08 "Hg9 mi
11:00 AM77 °FSunny.8 mph44%30.09 "Hg9 mi
10:00 AM73 °FSunny.9 mph53%30.09 "Hg9 mi
Weather by CustomWeather, © 2014

See weather overviewHow to use our weather pages